Waarnemingen

Advertentie
Mijn weer
Grenoble/St.Geoirs, Frankrijk (7486): temperatuur & dauwpunt: 27.03.2020 01:00:00 - 02.04.2020 01:00:00 (CEST)Grenoble/St.Geoirs, Frankrijk (7486): temperatuur 5cm: 27.03.2020 01:00:00 - 02.04.2020 01:00:00 (CEST)Grenoble/St.Geoirs, Frankrijk (7486): temperatuur -20cm & temperatuur -100cm: 27.03.2020 01:00:00 - 02.04.2020 01:00:00 (CEST)Grenoble/St.Geoirs, Frankrijk (7486): windsnelheid & windstoten: 27.03.2020 01:00:00 - 02.04.2020 01:00:00 (CEST)Grenoble/St.Geoirs, Frankrijk (7486): windrichting: 27.03.2020 01:00:00 - 02.04.2020 01:00:00 (CEST)Grenoble/St.Geoirs, Frankrijk (7486): luchtdruk: 27.03.2020 01:00:00 - 02.04.2020 01:00:00 (CEST)Grenoble/St.Geoirs, Frankrijk (7486): zicht: 27.03.2020 01:00:00 - 02.04.2020 01:00:00 (CEST)Grenoble/St.Geoirs, Frankrijk (7486): Zonneschijnduur: 27.03.2020 01:00:00 - 02.04.2020 01:00:00 (CEST)Grenoble/St.Geoirs, Frankrijk (7486): neerslag: 27.03.2020 01:00:00 - 02.04.2020 01:00:00 (CEST)
Datum & Tijd tt [°C] td [°C] tt 5cm [°C] tt -20cm [°C] tt -100cm [°C] ff [km/u] ff [kn] fx [km/u] fx [kn] dd ppp [hPa] vv [km] sd [min] rr [mm]
02.04.2020 01:00:00 5,6 2,2 -0,6 9,5 9,6 10 5 17 9 ZW 1016,2 29 0 0,0
02.04.2020 00:00:00 7,0 1,7 1,4 9,5 9,6 7 4 16 9 WZW 1016,1 31 0 0,0
01.04.2020 23:00:00 6,5 1,6 2,4 9,5 9,6 5 3 21 11 NNO 1015,9 26 0 0,0
01.04.2020 22:00:00 8,0 2,2 1,9 9,4 9,6 8 4 18 10 WZW 1015,6 27 0 0,0
01.04.2020 21:00:00 8,6 1,9 2,8 9,2 9,6 7 4 16 9 WZW 1015,2 28 0 0,0
01.04.2020 20:00:00 11,2 2,0 8,1 9,1 9,7 10 5 15 8 WZW 1014,2 34 30 0,0
01.04.2020 19:00:00 13,6 3,1 15,9 8,9 9,6 9 5 18 10 W 1013,9 35 42 0,0
01.04.2020 18:00:00 14,5 2,4 20,5 8,7 9,6 7 4 20 11 NW 1014,0 39 60 0,0
01.04.2020 17:00:00 14,8 2,3 22,3 8,6 9,6 10 6 20 11 WNW 1014,2 19 60 0,0
01.04.2020 16:00:00 13,9 1,5 20,3 8,4 9,6 10 5 24 13 WNW 1015,0 20 60 0,0
01.04.2020 15:00:00 14,0 2,5 19,3 8,3 9,6 13 7 25 13 W 1015,8 20 60 0,0
01.04.2020 14:00:00 12,8 2,6 17,3 8,2 9,6 14 8 33 18 ZW 1016,7 17 60 0,0
01.04.2020 13:00:00 12,1 3,6 15,4 8,2 9,6 14 7 29 15 ZW 1017,6 16 60 0,0
01.04.2020 12:00:00 10,7 0,7 14,3 8,3 9,6 5 3 19 11 ZO 1018,6 18 60 0,0
01.04.2020 11:00:00 8,4 -0,1 7,4 8,4 9,6 11 6 19 11 ONO 1019,5 14 43 0,0
01.04.2020 10:00:00 5,5 -0,6 2,5 8,5 9,7 14 8 22 12 O 1020,1 24 5 0,0
01.04.2020 09:00:00 1,2 -1,4 -2,8 8,6 9,7 14 7 18 10 O 1020,8 20 19 0,0
01.04.2020 08:00:00 -3,0 -4,7 -7,4 8,7 9,7 11 6 13 7 O 1021,5 16 5 0,0
01.04.2020 07:00:00 -3,8 -5,3 -8,0 8,8 9,7 9 5 11 6 O 1021,7 13 0 0,0
01.04.2020 06:00:00 -2,7 -4,9 -7,5 8,9 9,7 3 1 7 4 ONO 1021,4 16 0 0,0
01.04.2020 05:00:00 -2,6 -4,5 -7,1 9,0 9,7 7 4 14 7 O 1021,1 15 0 0,0
01.04.2020 04:00:00 -2,9 -5,4 -6,9 9,0 9,7 13 7 18 10 O 1021,5 19 0 0,0
01.04.2020 03:00:00 -3,1 -5,7 -6,7 9,2 9,7 10 5 11 6 OZO 1021,6 17 0 0,0
01.04.2020 02:00:00 -1,5 -3,9 -6,5 9,2 9,7 3 2 12 6 OZO 1021,5 14 0 0,0
01.04.2020 01:00:00 0,2 -3,7 -5,9 9,2 9,7 9 5 11 6 ZO 1021,2 17 0 0,0
01.04.2020 00:00:00 1,0 -3,1 -4,1 9,3 9,7 7 4 11 6 ZO 1021,0 18 0 0,0
31.03.2020 23:00:00 2,1 -3,2 -3,9 9,3 9,7 8 5 15 8 O 1020,7 22 0 0,0
31.03.2020 22:00:00 3,2 -1,9 -0,6 9,3 9,7 12 6 16 9 NNO 1020,3 16 0 0,0
31.03.2020 21:00:00 4,6 0,0 -1,4 9,2 9,7 11 6 14 8 N 1019,9 14 0 0,0
31.03.2020 20:00:00 7,7 -0,1 4,4 9,1 9,7 10 5 19 11 N 1019,1 22 29 0,0
31.03.2020 19:00:00 10,0 -0,2 12,0 9,0 9,7 15 8 26 14 N 1018,6 20 39 0,0
31.03.2020 18:00:00 10,7 0,1 14,6 8,9 9,7 18 10 34 18 N 1018,5 19 60 0,0
31.03.2020 17:00:00 10,8 0,2 16,0 8,8 9,7 19 10 34 19 N 1018,7 20 60 0,0
31.03.2020 16:00:00 10,8 0,2 15,9 8,7 9,7 19 10 35 19 N 1019,2 20 60 0,0
31.03.2020 15:00:00 10,0 1,6 13,5 8,6 9,7 20 11 31 17 N 1019,8 20 57 0,0
31.03.2020 14:00:00 8,6 0,3 12,1 8,6 9,7 20 11 35 19 NNO 1020,4 20 41 0,0
31.03.2020 13:00:00 7,3 0,0 10,2 8,6 9,7 21 12 35 19 N 1020,8 19 1 0,0
31.03.2020 12:00:00 6,3 -0,5 6,7 8,6 9,7 19 11 39 21 NNO 1020,7 17 0 0,0
31.03.2020 11:00:00 4,5 -1,9 5,7 8,6 9,7 30 16 45 25 NNO 1020,8 14 0 0,0
31.03.2020 10:00:00 3,9 -1,9 3,9 8,7 9,7 8 4 18 10 N 1020,8 23 0 0,0
31.03.2020 09:00:00 3,0 -3,2 2,7 8,7 9,7 3 1 15 8 W 1020,7 23 0 0,0
31.03.2020 08:00:00 2,8 -2,9 2,5 8,8 9,7 6 3 21 12 O 1020,3 22 0 0,0
31.03.2020 07:00:00 2,8 -2,5 2,2 8,9 9,8 8 4 24 13 OZO 1019,8 20 0 0,0
31.03.2020 06:00:00 2,6 -2,3 2,2 8,9 9,7 9 5 19 11 WZW 1019,6 17 0 0,0
31.03.2020 05:00:00 2,7 -2,2 0,7 9,0 9,8 11 6 27 15 NNO 1019,5 20 0 0,0
31.03.2020 04:00:00 2,3 -2,2 0,7 9,0 9,8 5 3 20 11 Z 1019,5 19 0 0,0
31.03.2020 03:00:00 2,2 -2,0 0,7 9,1 9,8 13 7 34 19 NNO 1019,5 19 0 0,0
31.03.2020 02:00:00 2,2 -1,4 -1,9 9,1 9,8 17 9 28 15 NO 1019,7 19 0 0,0
31.03.2020 01:00:00 3,3 -1,5 1,1 9,1 9,8 8 4 23 12 O 1019,7 21 0 0,0
31.03.2020 00:00:00 4,1 -0,7 3,7 9,1 9,8 9 5 22 12 O 1019,4 23 0 0,0
30.03.2020 23:00:00 4,4 -0,8 3,9 9,1 9,8 14 7 25 14 NO 1019,7 25 0 0,0
30.03.2020 22:00:00 4,6 -0,6 4,1 9,1 9,8 14 8 29 16 NNO 1019,5 26 0 0,0
30.03.2020 21:00:00 5,1 0,3 4,6 9,1 9,8 14 8 22 12 NNO 1018,9 25 0 0,0
30.03.2020 20:00:00 5,5 0,3 4,6 9,1 9,8 6 3 22 12 NNO 1018,4 17 0 0,0
30.03.2020 19:00:00 6,2 0,1 6,2 9,1 9,8 12 7 28 15 NNO 1017,9 27 0 0,0
30.03.2020 18:00:00 7,2 0,8 8,4 9,1 9,8 17 9 28 15 N 1017,6 26 1 0,0
30.03.2020 17:00:00 6,6 1,9 7,8 9,0 9,8 13 7 24 13 NNW 1017,8 25 0 0,0
30.03.2020 16:00:00 6,4 2,1 7,0 9,0 9,8 13 7 24 13 N 1018,2 25 0 0,0
30.03.2020 15:00:00 5,8 2,1 6,8 9,0 9,8 14 7 24 13 NNW 1018,6 25 0 0,0
30.03.2020 14:00:00 5,6 1,7 6,2 9,1 9,8 14 8 28 15 N 1018,7 23 0 0,0
30.03.2020 13:00:00 4,9 1,4 6,1 9,1 9,8 18 10 27 15 NNW 1018,7 23 0 0,0
30.03.2020 12:00:00 5,2 1,1 5,9 9,1 9,8 11 6 24 13 N 1018,6 23 0 0,0
30.03.2020 11:00:00 4,4 1,6 5,2 9,1 9,8 4 2 20 11 NNW 1018,7 20 0 0,0
30.03.2020 10:00:00 3,6 1,5 3,9 9,2 9,8 13 7 19 11 NNW 1018,2 21 0 0,0
30.03.2020 09:00:00 2,8 1,0 2,6 9,2 9,8 14 7 22 12 NNW 1018,2 21 0 0,0
30.03.2020 08:00:00 2,5 1,2 2,3 9,3 9,8 13 7 18 10 NNW 1018,0 17 0 0,0
30.03.2020 07:00:00 2,4 1,1 2,3 9,3 9,8 12 7 19 11 NNW 1017,9 17 0 0,0
30.03.2020 06:00:00 2,4 1,1 2,2 9,4 9,8 11 6 19 11 NNW 1017,9 14 0 0,0
30.03.2020 05:00:00 2,4 1,1 2,1 9,5 9,8 14 8 21 11 NNW 1018,2 15 0 0,0
30.03.2020 04:00:00 2,3 1,0 2,0 9,5 9,8 11 6 20 11 NNW 1018,6 16 0 0,0
30.03.2020 03:00:00 2,3 1,1 1,9 9,5 9,7 16 9 27 15 NNW 1019,1 15 0 0,0
30.03.2020 02:00:00 2,2 1,0 1,8 9,6 9,8 8 4 27 14 N 1019,5 13 0 0,0
30.03.2020 01:00:00 2,0 1,0 1,7 9,7 9,8 12 6 24 13 N 1019,9 9 0 0,0
30.03.2020 00:00:00 1,9 0,9 1,6 9,7 9,8 9 5 30 16 N 1020,3 11 0 0,0
29.03.2020 23:00:00 1,9 0,9 1,6 9,8 9,8 19 10 34 18 N 1020,4 8 0 0,0
29.03.2020 22:00:00 2,0 0,5 1,6 9,8 9,7 15 8 34 19 NNW 1020,7 12 0 0,0
29.03.2020 21:00:00 2,6 0,2 2,5 9,8 9,8 18 10 31 17 NNW 1020,7 18 0 0,0
29.03.2020 20:00:00 2,6 0,2 2,6 9,9 9,8 11 6 33 18 NW 1020,7 20 0 0,0
29.03.2020 19:00:00 2,7 0,3 2,8 9,8 9,7 15 8 44 24 NW 1020,7 15 0 0,0
29.03.2020 18:00:00 4,1 1,1 4,4 9,8 9,8 21 11 42 23 NNW 1019,8 12 0 0,0
29.03.2020 17:00:00 5,9 1,6 6,6 9,8 9,7 24 13 45 24 NW 1019,2 11 0 0,0
29.03.2020 16:00:00 6,8 1,9 7,3 9,7 9,7 29 15 48 26 N 1018,6 7 0 0,0
29.03.2020 15:00:00 7,9 2,6 9,3 9,7 9,7 27 14 43 23 NNW 1018,2 8 0 0,0
29.03.2020 14:00:00 8,5 3,1 10,5 9,7 9,8 29 15 45 24 NNW 1018,2 8 0 0,0
29.03.2020 13:00:00 8,5 3,1 11,9 9,7 9,7 23 13 44 24 NNW 1018,2 8 10 0,0
29.03.2020 12:00:00 8,6 3,2 12,0 9,7 9,7 26 14 40 22 NW 1017,8 8 27 0,0
29.03.2020 11:00:00 9,0 2,8 11,6 9,7 9,7 23 12 36 19 NNW 1017,3 9 51 0,0
29.03.2020 10:00:00 9,0 3,0 9,5 9,8 9,7 13 7 31 17 NW 1016,9 10 24 0,0
29.03.2020 09:00:00 8,1 4,1 5,6 9,9 9,7 10 5 27 14 N 1016,6 10 0 0,0
29.03.2020 08:00:00 5,7 3,5 -0,2 9,9 9,7 7 4 11 6 WZW 1016,5 10 0 0,0
29.03.2020 07:00:00 3,4 2,5 -0,9 10,0 9,7 5 3 13 7 O 1016,8 6 0 0,0
29.03.2020 06:00:00 3,5 2,2 -0,8 10,0 9,7 5 3 9 5 OZO 1016,8 6 0 0,0
29.03.2020 05:00:00 4,9 3,2 2,6 10,1 9,7 8 4 9 5 OZO 1016,6 7 0 0,0
29.03.2020 04:00:00 5,6 3,9 2,5 10,2 9,7 6 4 10 5 O 1016,7 8 0 0,0
29.03.2020 03:00:00 5,5 2,7 2,7 10,2 9,7 8 4 10 6 OZO 1017,3 9 0 0,0
29.03.2020 02:00:00 9,5 3,9 3,9 10,2 9,7 4 2 13 7 OZO 1016,6 10 0 0,0
29.03.2020 01:00:00 8,9 4,7 5,6 10,2 9,7 3 2 6 4 OZO 1016,9 12 0 0,0
29.03.2020 00:00:00 10,2 4,6 8,1 10,2 9,7 4 2 9 5 ZZW 1016,7 10 0 0,0
28.03.2020 23:00:00 10,5 5,3 9,0 10,2 9,7 5 3 9 5 OZO 1016,6 10 0 0,0
28.03.2020 22:00:00 10,2 4,6 4,7 10,1 9,7 4 2 9 5 ZZO 1016,8 10 0 0,0
28.03.2020 21:00:00 10,2 3,7 4,8 10,1 9,7 3 2 14 7 ZO 1016,5 12 0 0,0
28.03.2020 20:00:00 11,5 4,5 7,9 9,9 9,7 9 5 26 14 N 1015,8 13 0 0,0
28.03.2020 19:00:00 13,6 5,2 14,8 9,8 9,7 15 8 29 16 N 1015,2 13 50 0,0
28.03.2020 18:00:00 14,8 4,5 18,0 9,7 9,7 18 10 27 15 NNW 1014,8 11 60 0,0
28.03.2020 17:00:00 15,3 4,9 19,9 9,5 9,7 17 9 31 17 NNW 1014,7 13 60 0,0
28.03.2020 16:00:00 15,4 5,0 20,8 9,4 9,7 16 8 30 16 N 1015,0 10 60 0,0
28.03.2020 15:00:00 14,5 4,8 20,8 9,3 9,7 14 8 27 15 NW 1015,5 14 60 0,0
28.03.2020 14:00:00 13,8 3,8 19,4 9,2 9,7 16 8 24 13 NNW 1016,4 10 60 0,0
28.03.2020 13:00:00 12,7 2,8 17,8 9,2 9,7 15 8 34 18 NNW 1017,0 19 60 0,0
28.03.2020 12:00:00 12,0 3,5 15,1 9,2 9,7 10 5 20 11 N 1017,5 13 41 0,0
28.03.2020 11:00:00 10,8 2,9 14,4 9,2 9,7 2 1 8 4 NNW 1017,8 10 47 0,0
28.03.2020 10:00:00 7,7 3,2 9,0 9,3 9,7 3 1 10 5 W 1018,2 9 34 0,0
28.03.2020 09:00:00 6,3 3,5 3,9 9,4 9,7 3 1 9 5 NNO 1018,2 7 27 0,0
28.03.2020 08:00:00 3,9 2,4 2,6 9,4 9,7 3 1 8 4 O 1018,4 6 0 0,0
28.03.2020 07:00:00 3,6 2,3 2,4 9,5 9,7 6 3 8 4 O 1018,3 5 0 0,0
28.03.2020 06:00:00 3,3 2,1 1,6 9,6 9,7 6 3 9 5 O 1018,3 5 0 0,0
28.03.2020 05:00:00 3,0 1,7 0,7 9,6 9,7 5 3 6 4 O 1018,4 6 0 0,0
28.03.2020 04:00:00 2,5 1,5 0,8 9,7 9,8 3 2 9 5 NO 1018,5 6 0 0,0
28.03.2020 03:00:00 1,9 1,0 -1,8 9,7 9,7 7 4 9 5 O 1018,4 5 0 0,0
28.03.2020 02:00:00 1,8 0,3 -2,3 9,8 9,8 6 3 7 4 O 1018,4 5 0 0,0
28.03.2020 01:00:00 3,7 1,7 -1,5 9,8 9,7 3 1 6 3 O 1018,2 6 0 0,0
28.03.2020 00:00:00 4,7 1,5 1,7 9,9 9,7 6 3 9 5 OZO 1017,8 5 0 0,0
27.03.2020 23:00:00 5,2 2,2 2,0 9,8 9,7 7 4 11 6 O 1017,4 6 0 0,0
27.03.2020 22:00:00 4,0 0,9 0,9 9,8 9,8 6 4 11 6 O 1017,2 8 0 0,0
27.03.2020 21:00:00 5,2 1,1 1,1 9,8 9,8 8 5 11 6 O 1016,8 9 0 0,0
27.03.2020 20:00:00 7,9 0,1 2,6 9,7 9,7 3 2 9 5 O 1015,6 12 0 0,0
27.03.2020 19:00:00 9,4 1,1 9,3 9,6 9,7 8 5 20 11 N 1014,8 13 10 0,0
27.03.2020 18:00:00 10,2 0,8 11,4 9,5 9,8 12 7 20 11 NNW 1014,3 13 7 0,0
27.03.2020 17:00:00 10,3 -0,2 12,5 9,3 9,8 13 7 21 11 NNW 1014,2 16 3 0,0
27.03.2020 16:00:00 10,9 0,3 15,4 9,2 9,8 7 4 23 12 NW 1014,1 16 40 0,0
27.03.2020 15:00:00 10,3 -1,1 17,2 9,1 9,7 10 5 32 18 NW 1014,3 11 60 0,0
27.03.2020 14:00:00 10,2 -0,1 16,4 9,1 9,7 7 4 19 11 NNO 1014,2 8 60 0,0
27.03.2020 13:00:00 8,6 -0,2 14,5 9,1 9,8 8 4 18 10 W 1014,8 16 60 0,0
27.03.2020 12:00:00 7,3 -1,4 11,7 9,1 9,8 8 5 26 14 WNW 1015,3 15 60 0,0
27.03.2020 11:00:00 6,3 -1,4 8,8 9,2 9,8 7 4 16 9 NNW 1015,6 4,5 51 0,0
27.03.2020 10:00:00 4,5 -1,9 8,2 9,3 9,8 3 1 10 5 WNW 1015,7 13 39 0,0
27.03.2020 09:00:00 2,4 -0,5 -1,6 9,4 9,8 0 0 9 5 N 1015,7 9 20 0,0
27.03.2020 08:00:00 0,2 -1,6 -3,3 9,5 9,8 0 0 9 5 N 1015,8 8 0 0,0
27.03.2020 07:00:00 1,0 -1,1 -2,8 9,5 9,8 3 2 5 3 OZO 1015,3 9 0 0,0
27.03.2020 06:00:00 1,8 -0,5 -0,7 9,6 9,8 4 2 6 3 Z 1015,0 9 0 0,0
27.03.2020 05:00:00 1,8 -0,5 -0,7 9,7 9,7 5 3 8 4 ZZW 1014,9 10 0 0,0
27.03.2020 04:00:00 1,9 -0,5 -1,7 9,7 9,8 3 2 9 5 ZW 1014,9 8 0 0,0
27.03.2020 03:00:00 2,2 -0,6 -1,3 9,8 9,8 2 1 6 3 ZW 1014,6 11 0 0,0
27.03.2020 02:00:00 3,3 -0,5 -0,2 9,9 9,8 6 3 10 5 WZW 1014,3 9 0 0,0
27.03.2020 01:00:00 - - - - - - - - - - - - - -

tt = temperatuur
td = dauwpunt
tt 5cm = temperatuur 5cm
tt -20cm = temperatuur -20cm
tt -100cm = temperatuur -100cm
ff = windsnelheid
fx = windstoten
dd = windrichting
ppp = luchtdruk
vv = zicht
sd = Zonneschijnduur
rr = neerslag

Weerstations in de omgeving